Temp
22 23 22 22 21 20 20 20 20 20 20 20 20 20 19 19 19 19 19 19 19 19 19 19 19 20 20 20 19 20 20 19 14 13 14 14 14 14 14 14 14 14 13
22 22 21 21 21 21 20 20 20 20 20 20 20 19 19 18 18 18 18 18 18 19 18 19 18 19 19 19 19 19 19 18 15 13 13 13 13 13 13 13 13 13 13
21 21 21 20 20 20 20 20 20 20 20 20 20 19 19 18 18 18 18 18 18 18 18 18 18 18 18 18 18 18 17 16 14 13 13 12 12 12 12 12 13 13 13
21 21 21 21 21 21 20 20 20 20 20 20 20 19 19 19 18 18 18 18 18 17 18 18 18 18 18 17 17 17 15 14 14 13 12 12 12 12 12 12 13 13 13
21 21 21 21 21 21 20 20 20 20 20 20 19 19 19 19 18 18 18 18 17 17 17 17 17 17 17 17 17 16 15 14 13 13 12 12 12 12 13 13 13 13 13
21 21 21 21 21 21 21 20 20 20 20 20 20 20 19 19 18 18 18 18 17 17 17 16 16 17 17 17 16 16 16 15 13 13 13 12 12 13 13 14 14 13 13
21 21 21 21 21 21 21 20 20 20 20 20 20 19 19 18 18 18 18 18 17 17 17 17 17 16 16 17 16 16 16 15 16 15 13 13 14 14 14 14 14 14 15
21 21 21 21 21 21 21 20 20 20 20 18 19 19 19 18 18 18 18 18 17 17 17 17 17 17 16 16 16 16 15 15 15 15 15 15 15 15 15 15 15 15 14
21 22 22 22 21 21 20 20 20 20 19 19 18 19 19 18 18 18 17 17 17 17 16 16 16 16 16 16 17 16 15 15 15 15 15 15 15 15 15 15 15 15 14
22 22 22 22 22 21 21 20 20 20 19 18 18 18 18 19 18 18 17 17 17 16 16 16 16 16 16 16 17 16 16 16 16 15 15 15 15 15 16 16 15 16 13
23 23 22 22 22 22 21 20 20 19 19 18 18 18 18 18 18 18 17 17 17 17 17 16 16 15 16 16 16 16 16 15 15 15 15 15 15 15 16 15 15 15 15
23 23 23 22 21 21 20 20 19 19 19 18 18 17 17 18 18 18 17 17 17 17 17 17 16 16 15 16 16 16 15 15 15 15 15 15 15 15 15 15 15 15 15
23 23 22 22 21 21 19 19 19 18 18 18 17 17 17 17 17 17 17 17 17 17 17 17 17 16 16 16 15 15 16 16 16 16 15 15 16 15 15 15 15 15 15
21 20 20 19 19 19 19 18 19 18 17 17 17 16 17 17 17 16 15 16 16 16 16 16 16 16 16 16 15 16 16 16 17 16 16 16 15 15 15 15 15 15 15
19 19 19 19 19 19 18 18 18 17 17 17 17 17 16 15 17 16 16 16 16 16 16 15 15 15 15 15 16 16 16 16 16 16 16 16 16 16 15 15 15 15 15
18 18 18 18 18 18 17 17 17 17 16 16 16 16 17 17 17 16 15 15 15 15 15 15 15 15 15 16 16 16 16 16 16 16 16 16 16 16 16 15 15 15 15
18 18 18 17 18 17 17 16 16 16 15 15 15 16 16 16 16 15 15 14 14 14 14 15 15 15 16 16 16 16 16 16 16 16 16 16 16 16 15 15 15 15 15
17 17 17 17 16 17 17 16 16 15 14 14 14 14 14 14 14 14 14 13 13 12 14 14 15 15 15 15 15 16 16 16 16 16 16 16 16 16 16 16 16 15 15
17 17 17 17 17 17 16 15 15 14 13 13 13 13 12 13 13 13 13 13 13 13 13 14 15 15 15 15 15 16 16 16 16 16 16 16 16 16 16 16 16 15 15
17 17 17 17 17 17 16 15 15 14 13 12 12 12 12 11 12 12 12 13 13 13 14 14 14 15 15 15 16 16 17 16 16 16 16 16 16 16 16 16 16 15 15
18 18 17 17 17 17 16 16 15 14 14 13 13 13 13 12 12 12 13 13 13 13 14 14 14 14 15 15 16 16 16 17 16 16 16 16 16 16 16 16 16 16 15
18 18 18 17 17 17 16 16 16 15 15 15 14 14 14 13 13 13 13 13 13 14 14 14 14 15 15 16 16 16 16 17 16 16 16 16 16 16 16 15 15 15 14
18 18 18 17 17 17 17 16 16 16 16 16 15 15 15 14 14 13 13 14 14 14 14 14 14 15 16 16 16 17 17 17 17 17 16 16 16 16 15 15 14 14 14
18 18 18 17 17 17 17 17 18 16 16 16 16 15 15 15 15 13 13 14 14 15 15 16 16 16 17 17 17 17 18 18 18 17 17 16 16 15 14 14 13 13 12
19 19 18 18 17 16 17 17 17 16 16 16 16 15 14 13 12 12 14 15 14 15 16 16 16 16 17 18 18 18 18 17 17 16 16 15 15 14 13 12 12 11 11
18 18 16 16 16 16 16 16 15 15 14 13 14 13 13 13 13 13 13 12 14 14 13 14 15 16 16 16 18 17 16 15 15 14 13 13 14 12 11 11 11 11 10
Height
795 797 798 801 804 805 806 807 810 812 812 813 814 814 814 813 812 810 808 807 805 804 803 801 800 800 800 801 802 803 806 808 815 823 825 827 829 830 831 832 833 834 835
794 797 798 800 805 806 807 808 809 812 814 815 815 815 815 815 815 812 809 808 807 807 806 805 804 804 803 803 804 805 807 809 813 820 825 828 831 833 834 835 836 838 839
793 795 797 801 805 808 809 810 811 812 814 815 816 816 816 817 816 815 813 811 811 810 810 809 807 808 807 808 808 808 809 811 815 819 825 828 832 834 836 838 840 841 842
789 793 796 800 804 806 807 810 812 813 813 814 816 816 816 816 817 817 817 816 813 813 813 812 812 811 811 812 811 812 813 814 819 822 826 830 833 836 838 840 841 843 843
785 790 796 799 802 805 807 807 808 812 813 814 815 816 817 817 818 819 819 818 817 817 817 816 815 815 815 815 815 815 816 816 821 825 828 832 834 835 838 840 842 843 845
784 786 793 799 802 806 808 812 812 810 810 813 814 816 817 817 819 819 819 819 819 820 820 819 819 818 817 819 818 818 819 819 822 826 828 830 834 835 838 840 842 843 845
784 787 791 796 800 804 808 811 812 812 811 811 814 815 816 818 819 819 820 820 821 821 821 821 821 821 820 821 821 821 821 823 825 825 827 830 833 835 837 839 842 842 843
781 785 789 795 800 803 806 809 811 811 810 810 812 814 815 817 819 819 820 821 822 822 822 822 823 823 823 823 823 823 825 826 827 828 829 831 833 835 837 838 840 841 843
780 783 787 794 798 800 803 805 808 809 809 810 811 813 814 816 817 819 820 821 821 822 823 823 824 823 823 824 824 825 827 828 829 830 832 833 834 835 837 838 840 841 842
779 781 787 792 795 797 800 803 805 806 808 810 811 813 813 813 815 817 819 820 821 822 823 824 824 825 825 826 826 827 827 829 830 831 832 834 835 835 836 837 838 839 840
780 782 787 791 793 793 798 800 802 804 806 807 808 811 811 812 813 815 816 818 820 821 822 822 824 825 826 826 827 828 829 830 832 833 834 835 836 836 837 837 838 838 838
778 778 782 787 791 790 793 796 798 800 802 804 806 807 808 810 812 813 814 816 817 819 820 821 822 823 824 824 826 828 829 830 831 832 834 836 837 837 838 838 839 839 838
776 778 780 784 787 788 790 792 794 797 798 800 800 802 804 806 808 810 812 813 814 816 818 819 820 821 823 823 824 826 827 827 828 829 831 833 834 837 838 838 838 838 840
776 777 779 783 785 787 788 791 791 792 794 797 797 797 798 800 801 803 806 809 811 813 815 816 818 819 821 822 823 824 825 825 825 827 831 833 834 834 836 838 837 838 838
775 776 778 781 783 784 787 788 789 789 789 790 791 791 793 794 793 798 801 803 806 809 812 814 815 817 818 819 820 822 824 825 826 828 829 830 831 833 834 836 836 836 836
777 776 776 779 782 784 785 786 786 786 786 787 787 787 788 788 789 792 795 798 802 806 807 809 811 813 815 816 818 820 822 824 825 826 827 829 830 831 832 833 834 834 834
779 777 776 777 780 782 782 783 783 782 782 783 784 783 784 785 785 786 789 793 797 801 802 804 806 809 811 813 816 818 819 820 822 824 825 827 828 829 830 831 831 832 832
777 775 776 776 778 779 779 779 780 780 779 780 780 779 779 780 781 783 786 789 794 795 797 798 801 803 806 809 811 813 815 817 819 820 822 824 826 826 826 827 827 828 828
776 773 772 772 774 776 777 777 777 777 777 777 777 777 777 778 779 781 783 785 788 789 792 794 796 799 802 804 806 805 806 810 814 816 817 819 821 822 822 823 824 824 825
774 771 769 768 771 774 775 775 773 773 774 774 774 775 776 776 775 776 778 781 783 785 787 789 791 794 796 798 799 799 800 803 807 810 812 814 816 817 817 818 819 819 820
771 768 765 767 770 771 772 770 769 770 770 770 770 771 772 773 774 774 774 776 778 780 782 784 785 788 790 791 793 794 795 796 800 803 805 807 809 810 812 814 814 814 814
767 764 763 764 767 768 769 767 766 766 766 765 765 767 768 768 768 769 769 770 771 772 775 776 778 781 782 784 786 786 788 789 793 796 798 800 802 803 805 806 808 809 809
762 760 760 762 763 764 765 764 762 759 759 759 760 761 762 761 762 762 763 764 766 766 768 769 771 774 775 776 778 779 781 782 784 787 790 793 794 796 797 799 800 803 804
757 757 759 761 761 760 760 759 756 752 753 753 753 753 754 755 756 758 762 764 764 763 763 764 765 765 766 767 767 768 772 775 777 780 783 785 787 791 793 793 793 797 798
752 754 756 758 759 758 757 755 754 751 750 750 748 747 748 750 753 756 758 760 761 761 760 759 758 759 760 759 760 763 766 769 771 772 775 780 781 783 786 789 790 792 792
748 751 753 755 755 755 755 755 754 752 751 750 749 749 749 750 752 754 756 759 758 757 757 754 754 752 755 756 755 757 760 763 765 770 774 773 773 777 782 785 783 783 784
Wind_Speed
17 13 11 8 12 14 12 13 12 12 11 9 7 7 7 6 7 7 9 9 10 12 12 12 12 9 9 9 14 13 16 17 10 9 18 14 12 10 11 11 11 12 13
17 15 12 18 12 12 10 10 12 11 9 10 9 11 11 12 10 11 10 9 10 12 11 12 13 10 11 11 13 14 15 12 20 18 17 11 13 10 11 12 12 12 12
16 14 21 17 15 14 10 12 10 12 11 11 11 11 11 11 12 15 17 17 15 14 13 13 13 10 12 10 12 12 12 15 22 19 12 12 13 11 12 12 12 13 14
23 26 20 17 16 14 13 12 10 9 12 13 11 11 12 10 10 11 14 17 19 18 16 14 12 13 11 9 10 11 15 19 19 20 15 13 11 10 9 10 10 10 10
28 24 19 17 16 14 13 15 16 12 12 11 11 10 8 10 12 11 11 13 15 18 18 18 14 12 12 9 9 10 14 20 21 18 13 11 11 12 9 8 9 10 8
25 23 19 17 16 15 14 13 13 14 13 10 12 8 9 12 11 10 9 9 10 12 13 14 15 14 11 13 12 10 7 18 19 16 11 12 12 10 10 12 13 8 3
24 21 19 17 20 18 15 14 14 12 12 12 12 8 10 10 9 10 9 10 10 8 8 9 11 12 11 11 12 14 13 10 7 13 17 14 14 13 14 11 9 7 2
23 21 19 20 21 20 17 16 14 12 9 12 13 10 10 12 11 10 10 7 8 8 8 9 8 9 10 13 15 15 13 10 8 9 11 12 10 10 8 5 6 5 3
23 22 21 23 22 20 19 17 15 13 11 11 13 12 10 13 13 9 10 10 8 7 7 7 8 10 11 10 10 15 15 15 13 12 12 11 9 7 5 6 7 6 3
25 23 22 24 24 23 20 17 15 15 13 11 13 13 12 12 15 13 10 11 7 8 9 7 8 9 10 9 11 13 14 13 14 14 13 12 10 9 5 3 6 7 5
22 23 24 26 24 22 21 18 17 15 14 14 15 16 14 12 15 16 12 13 13 11 9 9 12 10 9 9 8 8 11 11 11 11 12 11 9 8 6 5 5 5 9
19 23 26 25 23 22 24 19 18 18 17 17 17 17 17 15 14 15 15 12 17 16 12 10 12 12 11 9 13 9 8 7 7 7 7 12 7 5 6 5 6 5 4
15 20 24 23 23 20 17 17 18 20 22 21 21 22 22 18 16 15 15 12 16 18 14 10 10 11 11 11 11 11 8 9 12 14 13 10 12 9 8 4 1 4 3
13 13 14 14 13 13 13 15 18 21 23 22 23 24 25 24 23 20 19 18 16 16 16 14 12 12 10 11 12 11 8 8 14 16 16 13 12 12 9 6 4 2 3
9 9 8 8 7 7 7 9 12 13 17 18 25 27 25 26 31 26 22 22 20 18 19 16 17 16 12 15 14 10 9 11 12 13 12 10 10 8 12 8 5 3 2
9 7 6 6 7 6 6 6 8 11 15 16 15 17 28 29 27 27 25 22 21 20 21 21 21 20 16 18 16 13 11 12 12 10 10 9 12 12 9 10 7 5 3
4 4 3 5 8 8 7 8 11 13 13 15 16 18 20 19 22 23 24 22 21 21 24 22 24 23 20 19 18 16 15 17 15 13 13 11 11 10 8 8 8 10 8
8 6 5 5 7 9 10 9 9 11 12 13 12 12 12 11 14 20 21 20 22 25 27 25 26 26 23 22 21 21 19 21 20 18 16 15 13 12 11 10 9 9 10
8 7 5 3 6 10 13 11 10 11 12 13 13 12 12 14 16 18 20 25 26 28 29 25 26 27 23 20 19 23 26 30 28 23 21 18 17 17 15 13 10 12 9
6 5 3 3 7 9 12 14 13 13 14 14 14 14 13 14 15 18 20 24 25 28 29 28 27 28 27 26 23 21 28 33 32 27 26 23 22 21 20 20 15 12 11
9 6 6 7 10 13 16 17 17 16 17 18 18 15 16 18 19 21 24 26 28 29 28 28 28 27 28 30 27 25 33 32 34 31 30 27 25 24 22 20 18 17 15
12 8 8 10 11 13 16 18 19 20 20 21 21 18 17 20 24 25 27 28 28 30 30 29 28 25 23 23 26 28 37 35 34 30 29 31 27 24 24 22 19 16 15
14 11 10 12 14 15 17 19 21 22 24 25 23 22 20 25 27 29 28 26 27 28 28 29 31 31 30 29 30 31 40 37 34 29 28 25 26 26 23 20 16 14 13
15 15 14 15 14 16 13 14 19 23 26 26 28 27 27 29 30 27 24 23 23 24 23 22 26 29 30 33 31 35 42 35 32 28 24 23 19 17 19 17 14 12 12
14 15 14 12 8 3 4 7 8 8 6 13 22 24 24 21 20 18 19 19 24 26 30 30 29 34 31 27 30 35 39 38 30 27 26 24 23 21 17 12 10 12 14
13 14 10 5 8 7 7 6 4 5 6 5 7 9 10 12 11 11 8 6 3 3 6 7 13 15 23 25 23 23 30 28 27 25 19 22 20 13 6 9 10 12 14
Wind_Direction
157 155 147 116 116 120 113 115 115 109 105 111 117 102 88 90 92 79 65 64 71 66 65 73 77 92 103 137 155 164 162 161 126 119 136 134 124 124 118 114 113 112 107
152 150 143 134 134 129 122 120 125 120 123 129 125 115 99 95 91 74 69 70 82 69 69 78 82 92 98 123 151 152 160 164 146 139 144 135 129 131 125 123 116 109 103
157 155 143 134 133 138 128 132 135 136 132 128 124 126 124 110 98 80 76 79 87 81 77 80 80 89 91 107 126 139 152 155 149 148 136 145 138 141 131 122 118 112 104
148 142 143 146 149 152 148 149 151 146 139 132 129 120 111 115 121 99 87 85 85 81 78 81 81 76 83 107 115 124 140 139 148 148 139 145 144 144 138 136 130 129 120
151 149 152 160 162 165 160 159 152 148 144 149 148 134 126 126 127 126 108 98 93 86 83 81 83 88 83 92 111 126 145 144 152 144 137 148 149 155 164 158 143 135 135
157 155 162 169 173 175 171 193 175 160 155 158 155 145 136 130 136 132 129 130 119 103 97 92 83 84 95 94 99 104 132 153 151 152 155 154 169 165 162 156 153 152 174
162 162 166 176 183 182 181 183 177 178 169 173 169 154 147 138 145 142 138 125 117 133 122 118 100 92 95 115 107 103 101 116 140 160 161 162 168 170 165 168 186 188 195
167 169 174 180 187 186 183 181 186 184 178 168 169 162 159 157 151 153 152 140 128 126 131 130 119 105 124 124 115 106 105 119 135 133 138 141 144 151 168 168 173 174 160
176 177 179 187 194 196 192 194 199 200 195 195 186 174 172 175 175 176 173 163 148 140 138 143 144 121 125 134 130 120 118 114 118 121 124 125 126 126 156 161 158 171 175
185 187 194 199 203 210 207 203 209 210 213 214 210 204 193 190 188 187 187 189 173 159 160 156 156 151 140 139 134 127 127 127 126 123 126 128 122 112 119 148 167 174 150
192 198 207 211 214 218 219 216 216 215 217 213 210 213 207 206 199 200 201 201 205 190 188 180 178 171 175 176 161 148 145 140 137 131 131 133 123 99 89 111 126 148 169
207 207 208 215 221 223 220 215 219 214 208 209 210 217 216 214 212 213 212 213 215 206 195 188 186 190 188 179 194 188 179 181 182 190 194 178 199 180 155 123 110 95 101
203 206 209 211 223 222 219 214 216 217 216 213 209 212 218 218 221 220 217 207 200 211 210 200 189 188 196 196 188 190 196 218 228 227 208 195 193 194 185 184 142 211 187
143 169 192 197 202 210 222 229 228 224 222 222 215 214 220 223 221 221 215 209 205 205 200 197 199 188 186 184 174 171 156 141 153 155 166 178 175 174 179 182 188 178 252
135 140 161 181 202 210 218 224 228 228 227 224 228 227 221 224 232 226 219 212 208 208 198 195 194 195 200 189 182 176 178 168 164 168 174 182 183 192 184 199 191 176 162
140 149 156 191 216 230 243 257 275 279 268 261 251 238 243 249 252 243 221 216 212 205 198 200 202 203 212 197 198 201 200 190 185 179 174 171 179 180 198 197 216 223 205
144 172 173 199 227 236 244 264 289 301 285 273 265 260 256 260 254 245 220 212 206 206 214 214 213 212 214 211 215 219 227 215 196 196 197 195 194 200 201 212 229 231 232
175 188 218 238 235 248 256 266 277 283 280 282 281 271 265 254 245 217 208 199 205 209 219 220 220 219 222 224 229 234 225 219 205 201 201 204 205 209 214 228 241 229 243
187 183 207 237 280 265 255 252 266 269 270 272 273 267 246 233 220 215 209 209 212 215 220 228 228 228 227 230 243 258 242 222 213 211 209 211 214 216 224 231 242 247 253
211 193 200 249 271 264 244 249 259 265 264 263 259 258 244 221 210 210 212 215 221 225 229 233 236 237 235 240 247 249 226 213 209 213 213 215 220 227 231 234 230 226 226
218 222 225 254 261 253 246 245 255 262 265 263 262 259 249 233 230 226 225 227 229 233 237 241 245 244 244 248 246 239 220 210 208 213 216 221 222 231 236 234 234 231 237
230 234 241 253 268 265 262 262 259 259 259 263 264 261 260 245 241 241 243 244 241 242 240 241 239 240 241 246 243 238 217 212 210 214 221 225 231 231 229 242 243 223 217
240 241 262 265 269 275 271 265 264 261 254 259 257 254 244 240 238 242 246 248 247 248 246 246 245 245 247 251 245 245 220 215 215 222 224 229 245 244 236 213 209 220 237
255 242 259 271 280 280 276 288 297 278 258 255 251 248 246 240 240 244 247 256 256 258 260 256 248 244 246 256 252 227 225 230 229 228 235 229 212 200 207 209 215 232 252
269 262 255 271 299 339 356 355 5 10 310 269 255 243 237 235 235 244 244 258 261 266 267 270 267 258 254 234 230 224 231 230 231 223 203 201 202 206 214 225 243 264 273
270 271 267 221 149 110 67 45 44 52 46 73 130 148 162 162 167 167 162 177 188 215 177 212 250 260 242 227 220 229 228 212 196 193 204 206 208 203 240 261 260 275 281